Regional Weather Roundup
Issued by NWS

Home | Current Version | Previous Version | Graphics & Text | Print | Product List | Glossary On
Versions: 1 2 3 4 5 6 7 8 9 10 11 12 13 14 15 16 17 18 19 20 21 22 23 24 25 26 27 28 29 30 31 32 33 34 35 36 37 38 39 40 41 42 43 44 45 46 47 48 49 50
000
ASUS43 KOAX 111202
RWRNE

WEATHER ROUNDUP FOR NEBRASKA
NATIONAL WEATHER SERVICE OMAHA NE
700 AM CDT FRI JUL 11 2014

NOTES: SATELLITE DATA IS BEING USED TO AUGMENT CLOUD COVER ABOVE
       12000 FEET.
       "FAIR" INDICATES FEW OR NO CLOUDS BELOW 12,000 FEET WITH NO
       SIGNIFICANT WEATHER AND/OR OBSTRUCTIONS TO VISIBILITY.

  * THESE STATIONS DO NOT REPORT WEATHER SUCH AS RAIN...SNOW OR FOG.

NEZ001>004-019>022-054>056-111300-
NEBRASKA PANHANDLE

CITY           SKY/WX    TMP DP  RH WIND       PRES   REMARKS
SCOTTSBLUFF    MOCLDY    63  61  93 MISG      30.03R
6HR MIN TEMP:  62; 6HR MAX TEMP:  69;

ALLIANCE       MOCLDY    63  62  97 SW3       30.01R
6HR MIN TEMP:  63; 6HR MAX TEMP:  66; 6HR PCP:  0.02;

CHADRON        CLOUDY    67  64  90 SW6       29.97R
6HR MIN TEMP:  64; 6HR MAX TEMP:  69; 6HR PCP:  0.01;

KIMBALL        PTCLDY    60  59  96 W3        30.10R
SIDNEY         CLOUDY    63  60  90 NW6       30.07R
6HR MIN TEMP:  63; 6HR MAX TEMP:  66;

$$

NEZ057>060-069>072-079>082-111300-
SOUTHWEST NEBRASKA

CITY           SKY/WX    TMP DP  RH WIND       PRES   REMARKS
NORTH PLATTE   CLOUDY    68  66  93 CALM      29.98R
6HR MIN TEMP:  67; 6HR MAX TEMP:  74; 6HR PCP:  0.01;

IMPERIAL       CLOUDY    70  67  90 NE6       30.00R FOG
6HR MIN TEMP:  70; 6HR MAX TEMP:  74;

LEXINGTON      CLOUDY    70  68  93 S8        29.95S
MCCOOK         PTCLDY    69  68  96 E9        29.96R FOG
6HR MIN TEMP:  69; 6HR MAX TEMP:  73;

OGALLALA       CLOUDY    65  63  94 CALM      29.98F
$$

NEZ005>010-023>029-035>040-094-111300-
NORTH CENTRAL NEBRASKA

CITY           SKY/WX    TMP DP  RH WIND       PRES   REMARKS
VALENTINE      MOCLDY    66  64  93 CALM      29.93R
6HR MIN TEMP:  65; 6HR MAX TEMP:  70;

AINSWORTH      PTCLDY    66  63  90 CALM      29.93R
BROKEN BOW     CLOUDY    70  69  97 SE6       29.94R FOG
6HR MIN TEMP:  70; 6HR MAX TEMP:  73; 6HR PCP:  0.12;

O`NEILL        CLOUDY    70  66  86 SE5       29.92S
ORD            CLOUDY    68  67  96 S6        29.93R
6HR MIN TEMP:  68; 6HR MAX TEMP:  71; 6HR PCP:  0.30;

THEDFORD       CLOUDY    72  62  71 SW9       29.91F
$$

NEZ041-046>049-061>064-073>077-083>087-111300-
SOUTH CENTRAL NEBRASKA

CITY           SKY/WX    TMP DP  RH WIND       PRES   REMARKS
GRAND ISLAND   CLOUDY    69  66  90 SE9       29.96F
6HR MIN TEMP:  69; 6HR MAX TEMP:  73;

AURORA         CLOUDY    69  68  97 SE6       29.98R
HASTINGS       CLOUDY    70  65  84 E7        29.99S
6HR MIN TEMP:  70; 6HR MAX TEMP:  72;

HEBRON         CLOUDY    72  66  83 CALM      29.99R
HOLDREGE       CLOUDY    69  66  92 SE8       29.97S
KEARNEY *      CLOUDY    70  66  88 S9        29.96S
YORK           CLOUDY    68  68 100 S9        29.98F
$$

NEZ011>018-030>034-042>045-111300-
NORTHEAST NEBRASKA

CITY           SKY/WX    TMP DP  RH WIND       PRES   REMARKS
NORFOLK        LGT RAIN  68  65  90 SE12      29.95F
6HR MIN TEMP:  67; 6HR MAX TEMP:  73; 6HR PCP:  0.66;

ALBION         CLOUDY    67  65  96 SE8       29.96S
BLAIR          MOCLDY    70  64  81 SW5       30.00R
TEKAMAH        CLOUDY    70  67  90 NW10      30.03R
6HR MIN TEMP:  70; 6HR MAX TEMP:  73; 6HR PCP:  0.08;

WAYNE          CLOUDY    69  67  93 CALM      29.97F
$$

NEZ050>053-065>068-078-088>093-111300-
SOUTHEAST NEBRASKA

CITY           SKY/WX    TMP DP  RH WIND       PRES   REMARKS
LINCOLN        MOCLDY    72  65  78 SW7       30.01R
6HR MIN TEMP:  71; 6HR MAX TEMP:  74;

OMAHA EPPLEY   CLOUDY    71  64  78 S10       29.97F
6HR MIN TEMP:  70; 6HR MAX TEMP:  73;

BEATRICE       PTCLDY    68  65  90 CALM      29.99R
FALLS CITY     PTCLDY    69  66  90 SE10      29.99S
6HR MIN TEMP:  67; 6HR MAX TEMP:  69;

NEBRASKA CITY  PTCLDY    69  65  88 S14       29.99S
PLATTSMOUTH    MOCLDY    70  65  84 SE7       29.98S
$$

NEZ044-045-051>053-067-111300-
OMAHA AREA

CITY           SKY/WX    TMP DP  RH WIND       PRES   REMARKS
OMAHA EPPLEY   CLOUDY    71  64  78 S10       29.97F
6HR MIN TEMP:  70; 6HR MAX TEMP:  73;

BLAIR          MOCLDY    70  64  81 SW5       30.00R
MILLARD        MOCLDY    71  66  83 S5        29.98S
OFFUTT AFB     MOCLDY    68  68  99 SE7       29.97F
PLATTSMOUTH    MOCLDY    70  65  84 SE7       29.98S
WAHOO          PTSUNNY   69  65  88 CALM      30.00S
$$


USA.gov is the U.S. government's official web portal to all federal, state and local government web resources and services.